Regional Weather Roundup
Issued by NWS

Home | Current Version | Previous Version | Graphics & Text | Print | Product List | Glossary On
Versions: 1 2 3 4 5 6 7 8 9 10 11 12 13 14 15 16 17 18 19 20 21 22 23 24 25 26 27 28 29 30 31 32 33 34 35 36 37 38 39 40 41 42 43 44 45 46 47 48 49 50
000
ASUS45 KSLC 041910
RWRUT

UTAH REGIONAL WEATHER ROUNDUP
NATIONAL WEATHER SERVICE SALT LAKE CITY UT
1200 PM MST WED MAR 04 2015

UTZ001>011-023>025-042000-

NORTHERN UTAH

CITY           SKY/WX    TMP DP  RH WIND       PRES   REMARKS
BRIGHAM CITY   SUNNY     34  14  43 CALM      30.23S
HILL AFB       SUNNY     33  10  39 SW3       30.21R
LOGAN          NOT AVBL
OGDEN          SUNNY     32  14  47 NW5       30.21R WCI  27
PROVO AIRPORT  NOT AVBL
SALT LAKE CITY MOSUNNY   35  21  56 N7        30.23R WCI  29
VERNAL         PTSUNNY   29  12  49 CALM      30.12R
WENDOVER       SUNNY     36  16  44 E8        30.23R WCI  29
HEBER CITY     SUNNY     30  18  59 CALM      30.16S
WEST JORDAN    SUNNY     34  19  55 NW8       30.22R WCI  27

$$

UTZ012>022-026-027-042000-

SOUTHERN/CENTRAL UTAH

CITY           SKY/WX    TMP DP  RH WIND       PRES   REMARKS
BLANDING       SUNNY     33  17  51 S5        30.13S WCI  29
BRYCE CANYON   SUNNY     25  10  53 N9        30.10R WCI  15
CEDAR CITY       N/A     32  14  47 N12       30.15R WCI  23
DELTA          SUNNY     34  18  52 NW8       30.22R WCI  27
HANKSVILLE     SUNNY     41  14  33 NW5       30.15F
MILFORD        SUNNY     33  22  63 N13       30.19S WCI  24
MOAB/CYNLANDS  MOSUNNY   38  19  46 CALM      30.11S
PRICE          SUNNY     33  12  41 NW16G26   30.09R WCI  23
ST GEORGE      CLEAR     45  21  39 SW7       30.19S
KANAB          SUNNY     39  18  41 N3        30.16S

$$

REGIONAL REPORTS     COLORADO/ARIZONA

CITY           SKY/WX    TMP DP  RH WIND       PRES   REMARKS
CRAIG, CO      CLOUDY    19  12  74 CALM      30.10S
GRAND JUNCTION SUNNY     36  17  46 W7        30.10S WCI  30
RIFLE          CLOUDY    32  11  41 N8        30.07S WCI  25
MONTROSE       SUNNY     31  18  58 SE9       30.08S WCI  23
CORTEZ         SUNNY     36  19  50 NW14      30.03S WCI  27
PAGE, AZ       SUNNY     42  16  34 VRB3      30.13R
GRAND CANYON   SUNNY     34  15  46 NE10      30.09R WCI  26
KINGMAN        NOT AVBL
FLAGSTAFF      SUNNY     33  16  49 NE12      30.06R WCI  24

$$

REGIONAL REPORTS    NEVADA/IDAHO/WYOMING

CITY           SKY/WX    TMP DP  RH WIND       PRES   REMARKS
LAS VEGAS, NV  SUNNY     53  14  21 N10       30.14F
ELY            SUNNY     30  10  43 N6        30.18S WCI  24
ELKO           SUNNY     39  15  37 SW14      30.20S WCI  31
POCATELLO, ID  SUNNY     30   9  41 CALM      30.24R
EVANSTON, WY   MOSUNNY   23  13  65 SW13      30.09R WCI  11
ROCK SPRINGS   SUNNY     10   7  87 SW3       30.09

$$


USA.gov is the U.S. government's official web portal to all federal, state and local government web resources and services.